STARLINK-32672 (62195 NORAD) Tracking and Keplerian Element Data

This shows tracking and keplerian element data for the satellite.

Feedback or suggestion? Click here.




ElementValue
Catalog62195
NameSTARLINK-32672
Epoch Orbit1053
Epoch Day34.60906324
Epoch Year2025
RAAN5.6821
Inclination43.0053
Eccentricity0.0001162
Argument of Perigee288.6888
Mean Anonmoly71.3839
Mean Motion15.32102775
Decay Rate1.22E-06
L11 62195U 24229D 25034.60906324 .00000122 00000+0 12539-4 0 9994
L22 62195 43.0053 5.6821 0001162 288.6888 71.3839 15.32102775 10533



Live tracking and technical data element details for STARLINK-32672 (NORAD 62195). STARLINK-32672 can be tracked NOW for your location showing map with azimuth and elevation plus other details from your city location.







IsCatalogInMostPopularTable: catalog: 62195, numindb: 16
Update: records affected: 1



GetName: 62195 STARLINK-32672

Hit Count: updated at: Mon, 19 May 2025 03:18:24 GMT